Location: Unspecified
(54.9976°N, 0.0000°E)
Time: 00:46:31
(UTC+00:00)

METEOR M2 - Visible Passes

Search period start: 04 April 2026 00:00
Search period end: 14 April 2026 00:00
Orbit: 817 x 824 km, 98.5° (Epoch: 29 March)

Date Brightness Start Highest point End Pass type
(mag) Time Alt. Az. Time Alt. Az. Time Alt. Az.
4 Apr ? 02:48:52 10° NE 02:51:41 14° E 02:54:29 10° ESE visible
4 Apr ? 04:27:24 10° NNE 04:32:48 71° ESE 04:38:10 10° S visible
5 Apr ? 04:06:48 10° NNE 04:12:04 51° E 04:17:16 10° S visible
6 Apr ? 03:46:16 10° NNE 03:51:15 36° E 03:56:11 10° SSE visible
7 Apr ? 03:25:52 10° NE 03:30:23 26° E 03:34:51 10° SSE visible
8 Apr ? 03:05:39 10° NE 03:09:26 19° E 03:13:12 10° SE visible
9 Apr ? 02:45:50 10° NE 02:48:26 13° E 02:51:02 10° ESE visible
9 Apr ? 04:24:13 10° NNE 04:29:36 68° ESE 04:34:57 10° S visible
10 Apr ? 04:03:37 10° NNE 04:08:51 48° E 04:14:02 10° S visible
11 Apr ? 03:43:06 10° NNE 03:48:02 35° E 03:52:54 10° SSE visible
12 Apr ? 03:22:43 10° NE 03:27:08 25° E 03:31:32 10° SE visible
13 Apr ? 03:02:32 10° NE 03:06:11 18° E 03:09:50 10° SE visible
